[[{"header":{"parameterUnit":"m.s-1","parameterCategory":1,"la1":30.2991,"la2":30.254,"lo1":-89.0895,"lo2":-89.0444,"dy":0.0017,"dx":0.0017,"nx":28,"ny":28,"refTime":"2025-04-18T21:00:00:Z","depth":0,"parameterNumber":2,"parameterNumberName":"U-component_of_WINDS"},"data":[0,0,0,0,0,0,0,0,0,0,0,0,0,0,0,0,0,0,0,0,0,0,0,0,0,0,0,0,0,0,0,0,0,0,0,0,0,0,0,0,0,0,0,0,0,0,0,0,0,0,0,0,0,0,0,0,0,0,-4.3592,-4.3593,0,-4.3669,-4.367,-4.3671,-4.3653,-4.3652,-4.365,-4.3649,-4.3726,-4.373,-4.3733,0,0,0,0,0,0,0,0,0,0,0,0,0,-4.343,-4.3433,-4.3592,-4.3593,-4.3594,-4.3669,-4.367,-4.3671,-4.3653,-4.3652,-4.365,-4.3648,-4.3725,-4.3729,-4.3733,0,0,0,0,0,0,0,0,0,0,0,0,0,-4.3503,-4.3434,-4.3592,-4.3594,-4.3595,-4.3669,-4.367,-4.3672,-4.3654,-4.3652,-4.3649,-4.3647,-4.3724,-4.3729,-4.3734,-4.381,0,0,-4.375,-4.3752,0,0,0,0,0,0,0,0,-4.3499,-4.3509,-4.3593,-4.3594,-4.3596,-4.3649,-4.3642,-4.3718,-4.3654,-4.3632,-4.3649,-4.3646,-4.3703,-4.3709,-4.3729,-4.3814,-4.3817,-4.375,-4.3753,-4.3756,-4.3757,0,0,0,0,0,0,0,-4.3494,-4.3506,-4.3623,-4.3594,-4.3596,-4.3592,-4.36,-4.3656,-4.3678,-4.3633,-4.3632,-4.3642,-4.3703,-4.3724,-4.373,-4.3818,-4.375,-4.3755,-4.3758,-4.376,-4.3971,-4.3973,0,0,0,0,0,0,-4.3488,-4.3502,-4.362,-4.3625,-4.3541,-4.3596,-4.3605,-4.3634,-4.3678,-4.3682,-4.3643,-4.3641,-4.3716,-4.3724,-4.3733,-4.3824,-4.3756,-4.376,-4.3763,-4.3968,-4.3971,-4.3974,0,0,0,0,0,0,-4.3485,-4.3499,-4.3617,-4.3563,-4.3578,-4.3602,-4.3634,-4.3637,-4.3658,-4.3685,-4.3689,-4.3661,-4.3714,-4.3726,-4.3791,-4.3827,-4.3763,-4.3767,-4.3965,-4.3969,-4.3972,-4.4008,0,0,0,0,0,0,-4.348,-4.3498,-4.3526,-4.3564,-4.3581,-4.3674,-4.3637,-4.364,-4.3667,-4.3664,-4.3702,-4.3707,-4.3714,-4.3784,-4.3796,-4.3833,-4.3771,-4.3962,-4.3967,-4.3971,-4.4003,-4.4012,-4.402,0,0,0,0,0,-4.3474,-4.3533,-4.3528,-4.3542,-4.3617,-4.3676,-4.3686,-4.3693,-4.367,-4.3699,-4.3717,-4.3705,-4.3822,-4.3791,-4.3805,-4.3843,-4.396,-4.3965,-4.3971,-4.4,-4.401,-4.4019,0,0,0,0,0,0,-4.3497,-4.3537,-4.3532,-4.3605,-4.3637,-4.3673,-4.3709,-4.3704,-4.3743,-4.3738,-4.3745,-4.3754,-4.3821,-4.3839,-4.3804,-4.3919,-4.3887,-4.3896,-4.3904,-4.3915,-4.3923,-4.3916,-4.3776,0,0,0,0,0,-4.3511,-4.3556,-4.3588,-4.3649,-4.3666,-4.3685,-4.3711,-4.3714,-4.3748,-4.3761,-4.3784,-4.3817,-4.3861,-4.3889,-4.3931,-4.4008,-4.4015,-4.4041,-4.4049,-4.4056,-4.4062,-4.4104,-4.4115,-4.3992,-4.3992,-4.3992,0,0,-4.3539,-4.3567,-4.3594,-4.3655,-4.368,-4.3726,-4.3697,-4.3746,-4.378,-4.3768,-4.3831,-4.385,-4.3888,-4.3959,-4.3991,-4.3976,-4.4099,-4.4063,-4.4068,-4.4071,-4.4111,-4.4122,-4.4133,-4.3996,-4.3995,-4.3995,0,0,-4.3613,-4.3639,-4.3692,-4.3719,-4.3759,-4.3772,-4.3785,-4.3823,-4.3834,-4.3898,-4.3891,-4.3932,-4.4008,-4.4035,-4.4058,-4.4147,-4.4137,-4.4161,-4.4202,-4.4242,-4.4252,-4.426,-4.4291,-4.4302,-4.4168,-4.4168,-4.4168,0,-4.3643,-4.3711,-4.3721,-4.3771,-4.3798,-4.3792,-4.3846,-4.3872,-4.3923,-4.3941,-4.3924,-4.402,-4.4045,-4.4122,-4.4144,-4.4164,-4.4179,-4.4154,-4.425,-4.4259,-4.4267,-4.4296,-4.4307,-4.417,-4.417,-4.417,-4.417,0,-4.3745,-4.3794,-4.3832,-4.3882,-4.3914,-4.3966,-4.3984,-4.4015,-4.4017,-4.4032,-4.4097,-4.4128,-4.4176,-4.4195,-4.4197,-4.4274,-4.4263,-4.4248,-4.4215,-4.4281,-4.4308,-4.4319,-4.4174,-4.4173,-4.4172,-4.4172,0,0,-4.3832,-4.3889,-4.3903,-4.3926,-4.3971,-4.4008,-4.4061,-4.4109,-4.4135,-4.4172,-4.4216,-4.4282,-4.4269,-4.4296,-4.4302,-4.4338,-4.4405,-4.4318,-4.4319,-4.4331,-4.449,-4.4499,-4.4511,-4.4401,-4.4403,-4.4405,-4.4486,0,-4.3908,-4.4001,-4.4012,-4.4094,-4.4139,-4.4136,-4.4182,-4.4214,-4.4231,-4.4272,-4.429,-4.4336,-4.4317,-4.4333,-4.4369,-4.4389,-4.4436,-4.4384,-4.444,-4.4442,-4.4427,-4.4526,-4.4535,-4.461,-4.4497,-4.4499,-4.45,0,-4.4009,-4.4049,-4.4136,-4.4176,-4.4195,-4.4236,-4.4282,-4.4321,-4.4359,-4.4369,-4.4401,-4.4402,-4.4457,-4.4425,-4.4501,-4.4465,-4.449,-4.4504,-4.4507,-4.451,-4.4473,-4.4529,-4.4635,-4.4645,-4.4518,-4.4516,-4.4515,0,-4.4061,-4.4137,-4.4199,-4.4219,-4.4268,-4.4297,-4.4319,-4.4355,-4.4383,-4.4424,-4.4443,-4.4489,-4.4514,-4.455,-4.4565,-4.454,-4.464,-4.4609,-4.4648,-4.4648,-4.4666,-4.4664,-4.4774,-4.4687,-4.4687,-4.4687,-4.4686,0,-4.4143,-4.4196,-4.4223,-4.4261,-4.432,-4.4334,-4.4393,-4.4414,-4.4446,-4.4488,-4.4489,-4.4528,-4.4546,-4.4589,-4.4601,-4.4661,-4.4673,-4.4682,-4.4684,-4.468,-4.4679,-4.4694,-4.4688,-4.469,-4.4689,-4.4688,-4.4688,0,-4.4209,-4.423,-4.4297,-4.4339,-4.4351,-4.4393,-4.4428,-4.4465,-4.4483,-4.4536,-4.455,-4.4577,-4.4628,-4.4647,-4.4708,-4.4716,-4.4785,-4.4785,-4.4772,-4.4772,-4.4809,-4.4805,-4.4931,-4.4948,-4.4852,-4.4853,-4.4853,0,-4.4259,-4.43,-4.4346,-4.4375,-4.4398,-4.4444,-4.4473,-4.449,-4.4521,-4.4569,-4.46,-4.465,-4.4691,-4.4771,-4.4797,-4.4844,-4.4843,-4.4884,-4.485,-4.4845,-4.4841,-4.4837,-4.4841,-4.4889,-4.489,-4.4891,-4.4892,0,-4.4344,-4.4353,-4.4396,-4.4443,-4.4479,-4.4517,-4.4554,-4.4577,-4.4599,-4.4634,-4.4686,-4.4718,-4.4782,-4.4831,-4.488,-4.4903,-4.4901,-4.4903,-4.4914,-4.4909,-4.4899,-4.4903,-4.4787,-4.4899,-4.4898,-4.4898,-4.4897,-4.4897,-4.4402,-4.4438,-4.4477,-4.4525,-4.4555,-4.459,-4.4627,-4.465,-4.4694,-4.4747,-4.4755,-4.481,-4.4849,-4.4915,-4.494,-4.4984,-4.4973,-4.4989,-4.4993,-4.4996,-4.4998,-4.4895,-4.4993,-4.4993,-4.4993,-4.4993,-4.4993,0,-4.4486,-4.4511,-4.4556,-4.4608,-4.4646,-4.4643,-4.4684,-4.4716,-4.4765,-4.4802,-4.4843,-4.4903,-4.4952,-4.4983,-4.5032,-4.5062,-4.5062,-4.5074,-4.507,-4.5075,-4.5006,-4.499,-4.5073,-4.5073,-4.5073,-4.5073,-4.5073,-4.5073,-4.4533,-4.4594,-4.4608,-4.4684,-4.471,-4.4764,-4.4788,-4.482,-4.485,-4.4917,-4.4958,-4.4978,-4.5013,-4.5066,-4.5111,-4.5119,-4.5136,-4.5149,-4.5155,-4.5089,-4.508,-4.5072,-4.5057,-4.5153,-4.5153,-4.5221,-4.5222,-4.5222]},{"header":{"parameterUnit":"m.s-1","parameterCategory":1,"la1":30.2991,"la2":30.254,"lo1":-89.0895,"lo2":-89.0444,"dy":0.0017,"dx":0.0017,"nx":28,"ny":28,"refTime":"2025-04-18T21:00:00:Z","depth":0,"parameterNumber":3,"parameterNumberName":"V-component_of_WINDS"},"data":[0,0,0,0,0,0,0,0,0,0,0,0,0,0,0,0,0,0,0,0,0,0,0,0,0,0,0,0,0,0,0,0,0,0,0,0,0,0,0,0,0,0,0,0,0,0,0,0,0,0,0,0,0,0,0,0,0,0,3.5057,3.5057,0,3.5095,3.5095,3.5096,3.5145,3.5146,3.5147,3.5148,3.518,3.518,3.5181,0,0,0,0,0,0,0,0,0,0,0,0,0,3.5024,3.5024,3.5057,3.5058,3.5058,3.5095,3.5095,3.5096,3.5145,3.5146,3.5147,3.5148,3.518,3.518,3.5181,0,0,0,0,0,0,0,0,0,0,0,0,0,3.5047,3.5024,3.5057,3.5087,3.509,3.5095,3.5095,3.5096,3.5145,3.5146,3.5147,3.5148,3.518,3.518,3.5181,3.5156,0,0,3.5181,3.5181,0,0,0,0,0,0,0,0,3.5046,3.5049,3.5082,3.5085,3.5089,3.5117,3.5096,3.5116,3.5144,3.5124,3.5148,3.5149,3.5158,3.516,3.5164,3.5158,3.5159,3.5181,3.5181,3.5181,3.5181,0,0,0,0,0,0,0,3.5044,3.5047,3.5072,3.5083,3.5087,3.5098,3.5102,3.51,3.5133,3.5126,3.513,3.5134,3.516,3.5164,3.5165,3.516,3.5181,3.5181,3.5181,3.5181,3.5138,3.5137,0,0,0,0,0,0,3.5039,3.5046,3.5071,3.5073,3.507,3.5097,3.5102,3.5106,3.5133,3.5139,3.5132,3.5136,3.5163,3.5165,3.5166,3.5142,3.5181,3.5181,3.5181,3.5139,3.5138,3.5136,0,0,0,0,0,0,3.5038,3.5041,3.5069,3.506,3.5065,3.5096,3.51,3.5106,3.5111,3.5139,3.5144,3.5131,3.5164,3.5166,3.516,3.5144,3.5181,3.5181,3.5141,3.5139,3.5137,3.5091,0,0,0,0,0,0,3.5037,3.504,3.5032,3.506,3.5065,3.5063,3.5099,3.5106,3.5111,3.5116,3.5138,3.5143,3.5165,3.5159,3.516,3.5144,3.5182,3.5142,3.514,3.5138,3.5094,3.5088,3.5082,0,0,0,0,0,3.5036,3.5016,3.5031,3.5034,3.5056,3.5062,3.5064,3.5092,3.511,3.5102,3.512,3.5143,3.5145,3.5158,3.5159,3.5144,3.5143,3.5141,3.5138,3.5097,3.5089,3.5082,0,0,0,0,0,0,3.4983,3.502,3.5038,3.5027,3.5041,3.507,3.506,3.5082,3.509,3.5094,3.5125,3.513,3.512,3.5131,3.5144,3.5123,3.5148,3.5145,3.5116,3.5109,3.5103,3.5101,3.5182,0,0,0,0,0,3.497,3.4973,3.5005,3.4992,3.4998,3.5028,3.5031,3.5052,3.5067,3.5072,3.509,3.5102,3.5107,3.5108,3.5113,3.5096,3.5102,3.5086,3.508,3.5075,3.5072,3.5066,3.5059,3.5127,3.5127,3.5127,0,0,3.4943,3.4964,3.4964,3.4982,3.4995,3.4997,3.5033,3.5032,3.5033,3.5072,3.5068,3.5081,3.5097,3.5085,3.5081,3.5094,3.5055,3.5071,3.5067,3.5067,3.5062,3.5056,3.505,3.5125,3.5126,3.5126,0,0,3.4896,3.4912,3.4904,3.4918,3.4938,3.4959,3.4957,3.4983,3.4994,3.4991,3.5021,3.5021,3.5027,3.5038,3.5044,3.5003,3.5025,3.5004,3.4973,3.4966,3.4961,3.4957,3.4943,3.4938,3.5001,3.5001,3.5001,0,3.486,3.4865,3.4897,3.4896,3.4903,3.494,3.4932,3.4943,3.4963,3.4967,3.4982,3.4992,3.5005,3.4997,3.4988,3.4991,3.499,3.5001,3.496,3.4955,3.4952,3.4939,3.4934,3.4998,3.4998,3.4999,3.4999,0,3.482,3.4823,3.4814,3.4836,3.4843,3.4838,3.4868,3.487,3.489,3.4908,3.4905,3.4922,3.4932,3.4932,3.4949,3.4927,3.4935,3.4954,3.498,3.4942,3.4931,3.4926,3.4994,3.4995,3.4996,3.4997,0,0,3.474,3.4782,3.4778,3.4789,3.4816,3.4818,3.4815,3.4827,3.4829,3.4842,3.484,3.4845,3.4864,3.4871,3.4891,3.4884,3.4853,3.4905,3.4906,3.4896,3.4831,3.4817,3.4811,3.4867,3.4866,3.4866,3.483,0,3.4699,3.4699,3.4728,3.4718,3.4722,3.4758,3.4756,3.4771,3.4788,3.4793,3.4811,3.4815,3.4839,3.4844,3.4839,3.4858,3.484,3.486,3.4866,3.4865,3.4862,3.4805,3.479,3.4756,3.4826,3.4825,3.4824,0,3.4651,3.4664,3.4656,3.4685,3.4688,3.4685,3.47,3.4704,3.4722,3.4735,3.4744,3.4768,3.4766,3.479,3.4789,3.4802,3.4805,3.4815,3.4814,3.4816,3.4843,3.4807,3.4745,3.474,3.4818,3.4818,3.4819,0,3.4595,3.4611,3.4609,3.4617,3.465,3.4648,3.4661,3.4681,3.4687,3.4699,3.4704,3.4714,3.472,3.4727,3.4753,3.4768,3.4748,3.4774,3.4759,3.4758,3.4754,3.4754,3.4693,3.4754,3.4754,3.4754,3.4754,0,3.4547,3.4541,3.4585,3.4584,3.4578,3.4611,3.4604,3.4621,3.4638,3.464,3.4671,3.4671,3.4705,3.4709,3.4728,3.4725,3.4727,3.4737,3.4742,3.4735,3.4734,3.4738,3.4742,3.4753,3.4753,3.4753,3.4754,0,3.4484,3.4513,3.4514,3.4546,3.4554,3.4549,3.4576,3.4576,3.4596,3.4598,3.46,3.463,3.4637,3.4664,3.4676,3.4689,3.4679,3.4689,3.4674,3.4678,3.4661,3.4663,3.4602,3.4596,3.466,3.4659,3.4658,0,3.4452,3.4449,3.4482,3.4487,3.45,3.4506,3.4514,3.4546,3.4552,3.4574,3.4571,3.4581,3.4591,3.46,3.4622,3.4632,3.4643,3.4621,3.4644,3.4638,3.4644,3.4645,3.4645,3.4616,3.4615,3.4614,3.4613,0,3.4393,3.4408,3.4418,3.4434,3.4443,3.4456,3.4471,3.4473,3.4509,3.4514,3.4523,3.453,3.4545,3.4554,3.4568,3.458,3.4603,3.4606,3.4603,3.4596,3.4588,3.4594,3.4661,3.4607,3.4608,3.4608,3.4609,3.4609,3.4346,3.4345,3.4369,3.438,3.4396,3.4409,3.4412,3.4433,3.4441,3.4457,3.4475,3.4482,3.4501,3.4523,3.4533,3.4539,3.4551,3.4546,3.4545,3.4544,3.4541,3.4587,3.4541,3.4541,3.4541,3.4541,3.4542,0,3.4289,3.4307,3.4317,3.4339,3.4347,3.437,3.4388,3.4393,3.44,3.4416,3.4426,3.4437,3.4447,3.447,3.4482,3.4482,3.4493,3.4484,3.4485,3.4488,3.4529,3.4531,3.4475,3.4475,3.4475,3.4476,3.4476,3.4476,3.4261,3.4263,3.4281,3.429,3.4307,3.4316,3.4325,3.4337,3.4352,3.4363,3.4372,3.4388,3.4408,3.4422,3.4432,3.4439,3.4442,3.443,3.444,3.4478,3.4485,3.4491,3.4493,3.443,3.443,3.4399,3.4399,3.4398]}]]